DW9584 Weather Reports


time (UTC)temp
C
wind
direction
speed
KPH
gust
KPH
rain 1hr
cm
rain 24hr
cm
rain mn
cm
humidity
%
barometer
mb
20260904074510 22 191 0.0 3.2 0.00 1.47 0.48 96 1012.4
20260904073032 22 351 0.0 1.6 0.00 1.47 0.48 96 1012.6
20260904071528 22 351 0.0 3.2 0.00 1.47 0.48 96 1012.3
20260904070025 22 351 0.0 0.0 0.00 1.47 0.48 95 1011.9
20260904064528 22 351 0.0 0.0 0.00 1.47 0.48 96 1011.8
20260904063027 22 351 0.0 0.0 0.00 1.52 0.48 95 1011.7
20260904061526 22 351 0.0 0.0 0.00 1.57 0.48 95 1011.9
20260904060015 22 351 0.0 1.6 0.00 1.88 0.48 95 1011.9
20260904054540 22 351 0.0 0.0 0.00 2.49 0.48 95 1012.2
20260904053035 22 351 0.0 0.0 0.03 2.49 0.48 95 1012.3
20260904051533 22 351 0.0 0.0 0.25 2.49 0.48 94 1012.4
20260904050040 22 351 0.0 0.0 0.48 2.49 0.48 94 1012.3
20260904044530 22 351 0.0 0.0 0.48 2.49 0.48 93 1012.3
20260904043025 23 351 0.0 3.2 0.46 2.46 0.46 92 1012.3
20260904041526 23 110 0.0 17.7 0.23 2.24 0.23 91 1013.4
20260904040036 24 287 0.0 3.2 0.00 2.01 0.00 91 1013.7
20260904034534 24 201 0.0 0.0 0.00 2.01 2.01 91 1013.0
20260904033035 24 201 0.0 0.0 0.00 2.01 2.01 91 1013.1
20260904031534 24 201 0.0 0.0 0.00 2.01 2.01 91 1013.2
20260904030030 24 201 0.0 0.0 0.00 2.01 2.01 90 1013.4
20260904024529 24 201 0.0 1.6 0.00 2.01 2.01 90 1013.5
20260904023036 24 201 0.0 0.0 0.00 2.01 2.01 90 1013.3
20260904021539 24 201 0.0 0.0 0.00 2.01 2.01 90 1013.5
20260904020034 24 201 0.0 0.0 0.00 2.01 2.01 89 1013.2
20260904014533 25 201 0.0 0.0 0.00 2.01 2.01 88 1013.5
20260904013045 25 201 0.0 3.2 0.00 2.01 2.01 88 1013.6
20260904011535 25 202 0.0 0.0 0.00 2.01 2.01 88 1013.9
20260904010009 25 202 0.0 3.2 0.00 2.01 2.01 89 1014.0
20260904004506 25 251 0.0 0.0 0.00 2.01 2.01 89 1013.8
20260904003005 25 251 0.0 0.0 0.00 2.01 2.01 88 1013.8
20260904001503 25 251 0.0 0.0 0.00 2.01 2.01 87 1013.7
20260904000003 26 251 0.0 0.0 0.00 2.01 2.01 86 1013.6
20260903234521 26 242 0.0 3.2 0.00 2.01 2.01 85 1013.5
20260903233025 26 193 0.0 1.6 0.00 2.01 2.01 84 1013.5
20260903231516 26 193 0.0 3.2 0.00 2.01 2.01 83 1013.3
20260903230012 27 226 0.0 3.2 0.00 2.01 2.01 83 1013.1
20260903224516 27 182 0.0 8.0 0.00 2.01 2.01 82 1013.2
20260903223006 27 224 0.0 8.0 0.00 2.01 2.01 81 1013.1
20260903221504 28 279 0.0 3.2 0.00 2.01 2.01 80 1013.1
20260903220026 28 274 0.0 6.4 0.00 2.01 2.01 79 1013.1
20260903214534 28 292 0.0 6.4 0.00 2.01 2.01 79 1012.8
20260903213032 28 304 0.0 3.2 0.00 2.01 2.01 79 1012.7
20260903211518 28 156 0.0 3.2 0.00 2.01 2.01 77 1012.8
20260903210014 28 100 0.0 3.2 0.00 2.01 2.01 77 1012.9
20260903204511 29 203 0.0 3.2 0.00 2.01 2.01 74 1012.9
20260903203011 29 104 0.0 4.8 0.00 2.01 2.01 74 1013.0
20260903201510 29 27 0.0 3.2 0.00 2.01 2.01 75 1013.1
20260903200030 30 306 0.0 6.4 0.00 2.01 2.01 72 1013.3
20260903194528 30 160 0.0 6.4 0.00 2.01 2.01 72 1013.3
20260903193026 30 170 0.0 4.8 0.00 2.01 2.01 72 1013.5
20260903191535 29 209 0.0 4.8 0.00 2.01 2.01 71 1013.8
20260903190016 29 310 0.0 4.8 0.00 2.01 2.01 72 1014.2
20260903184512 29 269 0.0 11.3 0.00 2.01 2.01 74 1014.4
20260903183022 28 149 3.2 9.7 0.00 2.01 2.01 72 1014.3
20260903181531 28 275 1.6 4.8 0.00 2.06 2.01 73 1014.4
20260903180034 28 179 3.2 6.4 0.00 2.11 2.01 77 1014.4
20260903174528 28 179 1.6 8.0 0.00 2.21 2.01 77 1014.6
20260903173025 27 181 0.0 4.8 0.00 2.26 2.01 79 1014.7
20260903171535 27 321 0.0 6.4 0.03 2.26 2.01 79 1015.0
20260903170018 27 207 0.0 6.4 0.03 2.26 2.01 79 1015.2
20260903164519 27 205 1.6 6.4 0.03 2.26 2.01 81 1015.5
20260903163015 27 251 0.0 8.0 0.03 2.26 2.01 81 1015.7
20260903161531 27 271 0.0 9.7 0.00 2.24 1.98 82 1016.1
20260903160033 26 243 1.6 6.4 0.00 2.24 1.98 82 1016.4
20260903154532 26 300 1.6 8.0 0.00 2.24 1.98 83 1016.4
20260903153031 26 298 0.0 9.7 0.00 2.24 1.98 85 1016.4
20260903151529 25 114 0.0 6.4 0.00 2.24 1.98 87 1016.5
20260903150027 25 275 0.0 6.4 0.00 2.24 1.98 89 1016.3
20260903144523 25 196 1.6 6.4 0.00 2.24 1.98 91 1016.2
20260903143031 23 321 0.0 8.0 0.00 2.24 1.98 94 1015.9
20260903141531 23 273 1.6 9.7 0.00 2.24 1.98 96 1016.1
20260903140034 23 167 1.6 17.7 0.00 2.24 1.98 96 1016.3
20260903134530 22 240 1.6 6.4 0.00 2.24 1.98 97 1015.9
20260903133029 22 61 0.0 4.8 0.00 2.24 1.98 97 1015.5
20260903131531 22 262 0.0 8.0 0.00 2.24 1.98 97 1015.3
20260903130004 22 345 0.0 6.4 0.00 2.24 1.98 97 1015.8
20260903124503 22 221 0.0 4.8 0.00 2.24 1.98 97 1015.8
20260903123005 22 352 0.0 8.0 0.00 2.24 1.98 97 1016.0
20260903121512 22 202 0.0 8.0 0.00 2.24 1.98 97 1016.0
20260903120008 21 167 0.0 3.2 0.03 2.24 1.98 97 1015.5
20260903114508 21 203 1.6 4.8 0.03 2.24 1.98 97 1016.7
20260903113009 21 293 0.0 6.4 0.03 2.24 1.98 97 1016.6
20260903111506 21 175 0.0 3.2 0.03 2.24 1.98 97 1017.3
20260903110004 21 282 0.0 3.2 0.05 2.21 1.96 97 1017.5
20260903104504 21 198 0.0 4.8 0.05 2.21 1.96 97 1017.2
20260903103018 21 259 0.0 3.2 0.08 2.21 1.96 97 1016.7
20260903101513 21 228 0.0 3.2 0.08 2.21 1.96 96 1016.9
20260903100014 21 229 0.0 3.2 0.05 2.16 1.91 96 1017.1
20260903094514 21 224 0.0 3.2 0.38 2.16 1.91 96 1017.2
20260903093014 21 260 0.0 3.2 0.86 2.13 1.88 96 1017.3
20260903091508 21 260 0.0 0.0 0.86 2.13 1.88 96 1017.4
20260903090008 21 260 0.0 0.0 0.84 2.11 1.85 96 1017.3
20260903084504 21 260 0.0 3.2 0.51 1.78 1.52 96 1019.2
20260903083021 21 312 0.0 6.4 0.03 1.27 1.02 96 1019.1
20260903081518 21 347 0.0 0.0 0.03 1.27 1.02 96 1017.1
20260903080018 21 347 0.0 0.0 0.03 1.27 1.02 96 1016.9